Wind_Speed
19 18 17 16 16 15 14 13 13 13 12 11 11 10 10 10 11 10 10 10 9 9 9 9 9 10 10 9 9 9 9 9 10 10 10 9 9 9 10 10 10 10 11
21 20 18 18 18 17 16 15 15 14 14 13 12 12 12 12 13 12 12 12 12 11 11 11 11 11 12 11 11 11 11 11 11 11 11 11 11 11 11 11 12 12 12
23 22 21 20 19 19 18 18 17 16 16 15 15 14 14 13 14 14 14 13 13 13 13 13 13 13 13 13 13 13 13 13 13 13 13 13 13 13 13 13 14 14 14
24 23 22 22 21 20 20 20 19 18 18 17 17 16 15 14 15 15 15 15 15 15 15 15 14 14 14 15 15 15 15 15 15 15 15 15 15 16 16 16 16 16 15
26 25 24 23 22 22 22 21 21 20 19 19 18 18 17 17 17 17 17 17 17 16 16 16 16 16 16 16 16 16 17 17 17 17 16 17 17 17 17 17 17 17 17
27 26 25 25 24 23 23 23 22 21 21 21 20 20 20 19 19 19 19 19 19 19 18 18 18 18 18 18 18 19 19 19 19 19 19 19 19 19 19 19 19 19 19
28 27 27 26 26 25 24 23 23 22 22 22 22 21 21 22 21 21 21 21 21 21 21 21 20 20 20 20 21 21 21 21 21 21 21 21 21 21 21 21 21 21 21
30 29 28 28 27 26 25 24 24 24 23 23 24 23 23 23 23 23 23 22 22 23 22 22 22 22 22 22 22 22 23 23 23 23 23 23 23 24 24 24 23 23 23
31 30 29 29 28 27 27 26 26 26 25 25 25 24 24 24 24 25 25 25 25 25 24 24 25 24 24 24 24 24 25 25 26 26 26 26 26 26 26 26 26 25 26
32 31 30 30 30 29 28 28 28 28 27 26 26 26 26 25 26 26 27 27 27 28 28 28 27 27 27 27 27 28 28 28 28 28 28 28 28 28 28 28 28 28 28
32 32 32 32 31 30 30 30 29 30 30 29 28 28 28 28 28 28 28 29 29 29 30 30 30 30 30 30 30 31 31 31 31 31 30 30 30 30 31 31 31 30 30
34 33 33 33 33 32 32 32 32 31 32 31 30 30 30 30 30 30 31 31 31 31 32 32 32 32 32 32 32 32 32 32 32 33 33 32 32 33 33 33 33 32 32
35 35 35 34 35 34 34 33 33 33 33 33 32 32 32 32 32 32 33 33 33 33 34 34 34 34 34 34 34 34 34 34 34 34 34 34 35 35 35 35 35 35 35
37 36 36 36 36 37 36 36 36 35 35 35 34 34 34 34 34 34 34 35 35 35 35 35 36 36 36 36 36 36 35 36 36 37 37 37 37 37 37 37 37 38 38
38 38 38 38 38 38 38 38 37 37 37 37 37 37 37 37 36 36 36 36 36 37 37 37 37 37 37 37 38 38 37 38 38 39 39 39 39 39 39 39 39 39 39
40 39 39 39 39 39 39 38 38 38 38 39 39 39 38 38 38 37 37 37 38 38 38 38 38 38 39 39 39 39 39 39 39 40 40 40 41 41 41 41 41 42 42
41 40 40 40 40 40 40 40 40 39 38 39 40 40 39 39 39 38 39 39 40 40 40 40 40 39 40 40 41 41 41 40 40 41 42 42 43 43 43 43 43 44 44
41 41 41 42 41 41 41 41 40 40 40 40 41 41 41 41 40 40 40 40 41 42 41 41 41 41 41 41 41 41 42 43 43 44 45 45 45 45 45 45 45 45 45
41 42 42 42 42 42 42 41 41 41 42 41 41 41 42 42 42 42 42 42 42 42 43 42 43 43 43 43 42 43 43 44 45 46 46 47 47 47 47 47 47 47 47
40 41 42 42 42 42 42 42 42 43 43 43 43 43 43 43 43 43 43 44 43 44 44 44 45 45 45 45 45 45 45 46 47 47 48 48 49 49 49 49 49 49 48
40 40 41 43 43 44 44 44 44 44 45 44 45 45 44 44 45 44 44 44 44 45 45 46 46 46 47 47 47 47 47 48 48 48 49 49 50 50 50 50 50 49 50
38 40 41 42 43 44 45 45 46 46 46 46 46 46 46 46 46 46 45 46 46 46 47 47 47 47 48 49 49 49 49 49 49 49 49 50 50 51 51 50 50 50 50
38 39 41 42 43 44 45 46 46 47 48 48 47 48 48 48 48 47 47 48 47 47 48 48 48 49 49 50 51 51 50 50 49 49 49 49 51 51 50 50 50 50 50
37 38 40 41 42 44 45 47 48 47 48 48 49 49 50 50 50 50 50 50 50 50 50 49 48 49 50 51 51 51 51 51 51 49 48 48 49 49 49 50 50 50 49
36 37 39 40 41 43 44 46 47 48 49 49 49 50 50 50 51 51 51 52 51 51 51 51 51 51 51 51 52 52 51 50 50 50 47 46 46 47 47 47 48 49 49
34 36 37 39 41 43 44 45 46 48 49 50 50 50 50 50 51 52 52 53 53 52 53 53 52 53 52 52 52 51 51 50 49 49 48 46 46 46 47 46 46 47 47
Wind_Direction
248 244 243 243 245 247 247 249 252 253 252 254 255 256 255 257 257 256 257 258 261 262 266 272 275 273 272 273 275 280 283 284 282 282 282 282 283 286 290 293 293 293 294
247 245 243 242 243 246 248 248 249 251 254 256 255 257 256 258 257 257 257 259 261 261 266 271 273 272 269 270 274 278 280 281 281 281 282 283 283 285 287 289 292 292 291
245 245 243 243 243 245 247 248 250 251 254 255 256 258 256 259 259 258 259 260 262 263 265 269 271 272 270 269 272 276 278 279 279 279 280 282 282 283 285 287 290 291 289
246 245 243 244 244 244 246 248 249 251 253 255 256 257 257 259 260 260 261 262 263 264 265 268 269 271 270 270 272 274 276 276 277 278 278 279 280 281 283 285 287 288 288
246 246 243 243 245 245 247 249 250 250 252 254 254 255 256 258 259 260 261 263 264 264 265 267 269 270 271 271 272 273 274 275 276 277 278 278 279 280 281 283 284 285 286
246 247 245 244 246 247 248 250 250 250 253 254 255 257 258 259 260 263 263 263 265 265 267 268 269 271 273 273 272 272 273 275 276 277 278 278 279 279 280 281 283 284 284
245 245 246 245 247 248 248 249 250 251 253 254 256 259 261 261 261 263 262 264 265 266 267 267 269 271 274 274 274 274 275 275 277 278 278 279 279 279 280 281 281 281 282
246 245 246 245 246 247 248 249 251 251 253 255 258 260 262 263 262 263 263 264 266 266 266 268 269 270 272 273 274 274 274 275 276 278 278 279 280 280 280 280 280 280 280
246 245 248 246 246 247 248 249 251 253 254 256 259 260 262 263 264 265 266 266 267 267 267 269 269 270 272 274 274 274 274 275 275 277 278 279 279 279 278 278 279 279 279
245 245 246 246 247 248 249 250 252 253 255 257 259 261 263 265 266 266 265 266 267 268 268 269 270 271 273 274 274 273 274 275 276 276 277 278 278 278 278 278 278 279 279
246 246 246 246 248 249 251 251 253 255 256 257 259 261 264 266 268 268 267 266 266 267 269 270 271 272 273 273 273 273 273 274 275 275 276 277 277 278 279 279 279 279 279
247 248 247 247 249 250 251 252 253 255 256 257 259 262 264 266 268 269 269 268 267 268 269 270 270 272 272 273 273 273 273 273 273 274 274 275 276 277 277 277 278 278 279
247 248 248 249 250 250 252 253 255 257 259 258 260 262 265 267 268 269 269 269 269 269 269 270 270 272 273 273 272 272 272 272 272 272 274 274 275 277 277 277 277 277 278
247 248 249 250 251 251 252 253 256 258 260 260 261 263 264 267 268 269 269 268 269 269 269 270 270 272 272 272 272 271 271 271 271 272 273 274 275 275 277 277 277 277 277
248 249 250 252 252 253 253 254 257 259 261 262 261 262 264 266 267 268 268 267 267 269 269 269 270 271 271 272 272 271 271 271 272 273 273 273 274 275 275 276 276 277 278
248 249 251 252 252 253 253 255 257 259 260 262 262 263 264 265 267 267 266 266 267 268 269 270 270 271 271 271 270 271 271 272 273 274 274 274 274 274 274 274 275 276 277
249 249 250 251 252 253 254 254 256 258 261 261 262 263 264 265 266 266 266 267 267 268 269 270 270 270 270 271 271 271 272 272 273 274 274 274 274 274 274 274 273 274 275
249 249 250 251 252 253 254 255 255 257 260 263 263 263 263 264 265 267 268 268 268 268 268 270 271 271 270 271 271 271 272 272 273 274 275 275 274 275 274 274 273 273 273
249 249 250 251 252 253 254 255 257 258 261 262 264 264 264 264 265 267 269 269 268 267 267 269 271 271 271 271 271 272 273 273 274 275 275 275 275 274 274 274 274 273 273
249 249 250 251 253 254 255 256 258 259 260 262 263 264 264 265 266 267 268 269 269 268 268 268 270 271 271 271 272 272 273 275 275 276 276 276 276 274 274 274 274 274 274
251 251 252 253 254 255 256 257 259 260 260 261 262 263 265 266 267 267 267 269 269 269 269 269 270 271 272 272 273 273 274 275 276 278 279 278 277 275 275 274 274 274 273
253 253 253 254 255 256 257 258 260 261 262 262 263 263 265 266 268 268 268 269 270 270 270 272 272 272 273 274 274 275 275 276 278 279 279 278 277 275 274 274 273 272 273
254 254 255 255 256 257 258 259 261 261 261 262 263 265 266 266 267 268 269 270 271 271 272 273 272 272 273 274 275 277 277 277 279 279 280 279 278 275 273 273 273 272 272
256 256 256 257 258 259 260 261 262 262 262 263 264 266 266 267 267 268 269 270 271 272 272 273 273 273 273 274 275 276 277 279 279 279 279 279 279 277 276 273 272 271 271
258 259 258 259 259 260 261 262 263 263 263 264 265 266 267 267 268 269 269 270 271 272 272 273 273 273 274 274 274 274 275 277 279 279 279 278 278 278 277 275 273 272 271
261 263 262 261 261 262 263 264 264 264 265 265 265 266 266 267 268 269 270 270 271 272 272 273 273 273 274 274 273 273 274 276 278 278 278 279 278 277 278 277 275 273 272
Height
5828 5829 5831 5832 5834 5835 5836 5837 5838 5839 5839 5840 5841 5841 5842 5843 5844 5844 5845 5846 5846 5847 5847 5848 5848 5849 5849 5850 5850 5850 5850 5850 5850 5850 5850 5850 5851 5851 5851 5851 5850 5850 5850
5824 5826 5827 5829 5830 5832 5833 5834 5835 5836 5837 5838 5838 5839 5840 5841 5841 5842 5843 5843 5844 5845 5845 5846 5846 5847 5847 5847 5848 5848 5848 5848 5848 5848 5848 5848 5848 5849 5849 5849 5848 5848 5848
5820 5822 5823 5825 5827 5828 5829 5831 5832 5833 5834 5835 5836 5837 5837 5838 5839 5840 5840 5841 5842 5842 5843 5843 5844 5844 5844 5845 5845 5845 5845 5846 5846 5846 5846 5846 5846 5846 5846 5846 5846 5846 5845
5816 5817 5819 5821 5823 5824 5826 5827 5828 5830 5831 5832 5833 5834 5835 5835 5836 5837 5837 5838 5839 5839 5840 5840 5841 5841 5842 5842 5842 5842 5843 5843 5843 5843 5843 5844 5843 5843 5843 5843 5843 5843 5843
5811 5813 5814 5817 5818 5820 5822 5823 5825 5826 5827 5828 5829 5830 5831 5832 5833 5833 5834 5835 5836 5836 5837 5837 5837 5838 5838 5839 5839 5839 5839 5839 5840 5840 5840 5840 5840 5840 5840 5840 5840 5839 5839
5806 5808 5810 5812 5814 5816 5817 5819 5821 5822 5823 5824 5825 5826 5827 5828 5829 5830 5830 5831 5832 5832 5833 5833 5834 5834 5835 5835 5835 5835 5836 5836 5836 5836 5836 5836 5836 5836 5836 5836 5836 5836 5835
5801 5803 5805 5807 5809 5811 5813 5815 5816 5818 5819 5820 5821 5822 5823 5824 5825 5825 5826 5827 5828 5828 5829 5829 5830 5830 5831 5831 5831 5831 5831 5832 5832 5832 5832 5832 5832 5832 5832 5832 5832 5831 5831
5796 5798 5800 5802 5804 5806 5808 5810 5811 5813 5814 5815 5816 5817 5818 5819 5820 5821 5821 5822 5823 5823 5824 5825 5825 5826 5826 5826 5827 5827 5827 5827 5827 5827 5827 5827 5827 5827 5827 5827 5827 5827 5826
5790 5793 5795 5797 5799 5801 5803 5805 5807 5808 5809 5810 5812 5812 5813 5814 5815 5816 5816 5817 5818 5818 5819 5819 5820 5820 5821 5821 5821 5821 5821 5821 5822 5822 5822 5822 5821 5821 5821 5821 5821 5821 5821
5785 5787 5789 5792 5794 5796 5798 5799 5801 5803 5804 5805 5806 5807 5808 5809 5810 5810 5811 5812 5812 5813 5813 5814 5814 5814 5815 5815 5815 5815 5815 5815 5815 5815 5815 5815 5815 5815 5815 5815 5815 5815 5815
5779 5781 5783 5785 5788 5790 5792 5793 5795 5797 5798 5799 5800 5802 5802 5803 5804 5804 5805 5806 5806 5807 5807 5807 5807 5808 5808 5808 5808 5809 5809 5809 5809 5809 5809 5808 5808 5808 5808 5808 5808 5808 5808
5773 5775 5777 5779 5781 5783 5785 5787 5789 5790 5791 5793 5794 5795 5796 5797 5798 5798 5799 5799 5800 5800 5800 5800 5800 5800 5800 5801 5801 5801 5801 5801 5801 5801 5801 5801 5801 5801 5801 5800 5801 5801 5800
5766 5768 5770 5772 5775 5777 5778 5780 5782 5783 5784 5786 5787 5789 5790 5790 5791 5791 5791 5791 5792 5792 5792 5792 5793 5793 5793 5793 5793 5793 5793 5793 5794 5793 5793 5793 5793 5793 5792 5792 5792 5792 5792
5758 5760 5763 5765 5767 5769 5771 5773 5775 5776 5778 5779 5780 5781 5782 5783 5783 5783 5783 5783 5784 5784 5784 5784 5785 5785 5785 5785 5785 5785 5785 5785 5785 5785 5785 5785 5784 5784 5784 5784 5784 5784 5784
5750 5752 5755 5757 5759 5761 5763 5765 5767 5769 5770 5771 5772 5773 5774 5775 5775 5775 5775 5775 5775 5775 5776 5776 5776 5776 5776 5776 5776 5776 5776 5776 5776 5776 5776 5776 5775 5775 5775 5775 5775 5775 5774
5742 5744 5747 5749 5751 5753 5755 5757 5759 5760 5761 5762 5763 5764 5765 5766 5766 5766 5766 5766 5767 5767 5767 5767 5767 5767 5767 5767 5767 5767 5767 5766 5766 5766 5766 5766 5766 5765 5765 5765 5765 5765 5764
5732 5735 5738 5740 5742 5744 5746 5748 5750 5751 5752 5753 5754 5755 5756 5756 5756 5757 5757 5757 5757 5758 5757 5757 5757 5757 5757 5758 5758 5758 5757 5757 5757 5756 5756 5756 5755 5755 5755 5754 5754 5754 5754
5723 5726 5728 5731 5733 5735 5737 5739 5740 5742 5743 5744 5745 5745 5746 5747 5747 5748 5747 5747 5748 5748 5748 5748 5748 5748 5748 5748 5748 5748 5748 5747 5747 5746 5745 5745 5744 5744 5743 5743 5742 5742 5742
5713 5716 5719 5721 5723 5725 5727 5729 5731 5732 5733 5734 5735 5736 5736 5737 5737 5737 5738 5738 5737 5738 5738 5738 5738 5738 5738 5738 5738 5738 5737 5736 5736 5735 5734 5733 5732 5732 5731 5731 5730 5730 5730
5704 5706 5709 5711 5713 5715 5717 5719 5720 5722 5723 5724 5725 5725 5726 5727 5727 5727 5727 5727 5727 5727 5727 5728 5727 5727 5727 5727 5726 5726 5726 5725 5724 5724 5723 5722 5720 5719 5718 5718 5717 5717 5717
5694 5696 5699 5701 5703 5705 5707 5709 5710 5712 5713 5714 5714 5715 5715 5716 5716 5716 5717 5717 5716 5717 5716 5716 5716 5716 5715 5715 5715 5715 5715 5714 5713 5712 5710 5709 5708 5706 5705 5705 5704 5704 5703
5685 5687 5689 5691 5692 5694 5696 5698 5699 5700 5701 5703 5703 5704 5704 5704 5704 5705 5706 5706 5705 5705 5705 5704 5704 5704 5704 5702 5702 5701 5702 5703 5701 5700 5698 5696 5695 5693 5692 5691 5690 5690 5690
5675 5677 5678 5680 5681 5683 5685 5686 5687 5688 5690 5691 5691 5692 5692 5692 5693 5694 5694 5694 5694 5693 5693 5692 5692 5692 5692 5690 5688 5687 5687 5688 5689 5689 5686 5683 5681 5680 5679 5677 5677 5676 5676
5665 5666 5668 5669 5670 5672 5673 5674 5675 5676 5678 5679 5679 5680 5680 5680 5681 5681 5682 5681 5681 5681 5681 5680 5679 5678 5678 5677 5676 5675 5674 5673 5673 5674 5674 5671 5668 5666 5665 5664 5663 5662 5662
5655 5656 5658 5658 5659 5661 5661 5662 5663 5664 5665 5666 5666 5667 5667 5667 5668 5668 5669 5668 5668 5668 5667 5667 5666 5665 5665 5664 5663 5663 5661 5660 5659 5659 5660 5659 5656 5654 5652 5651 5650 5649 5649
5646 5647 5647 5648 5649 5649 5649 5650 5650 5651 5652 5653 5653 5654 5654 5654 5655 5655 5655 5655 5655 5655 5654 5654 5653 5652 5652 5651 5650 5649 5648 5648 5647 5646 5646 5645 5644 5643 5640 5639 5637 5637 5636